Regional Weather Roundup
Issued by NWS Wilmington, NC

Home | Current Version | Previous Version | Text Only | Print | Product List | Glossary On
Versions: 1 2 3 4 5 6 7 8 9 10 11 12 13 14 15 16 17 18 19 20 21 22 23 24 25 26 27 28
000
ASUS42 KILM 191113
RWRILM
RWRILM
REGIONAL HOURLY WEATHER ROUNDUP
NATIONAL WEATHER SERVICE WILMINGTON NC
700 AM EDT THU OCT 19 2017

NOTE: "FAIR" INDICATES FEW OR NO CLOUDS BELOW 12,000 FEET WITH NO
SIGNIFICANT WEATHER AND/OR OBSTRUCTIONS TO VISIBILITY.

...............WFO WILMINGTON COUNTY WARNING AREA...............

......COASTAL NC AND SC COUNTIES......

CITY           SKY/WX    TMP DP  RH WIND       PRES   REMARKS
WILMINGTON     MOCLDY    57  56  96 NE8       30.24S
N MYRTLE BEACH CLEAR     58  54  86 N9        30.23S
MYRTLE BEACH   CLEAR     57  54  89 N8        30.25R

......INLAND NC AND SC COUNTIES.......

CITY           SKY/WX    TMP DP  RH WIND       PRES   REMARKS
LUMBERTON      CLEAR     49  48  97 NE10      30.27R
ELIZABETHTOWN  NOT AVBL
WHITEVILLE     CLEAR     54  52  93 CALM      30.25S
FLORENCE       CLEAR     50  47  89 N5        30.27S
DARLINGTON     CLEAR     46  43  89 N5        30.29R
KINGSTREE      FAIR      48  46  93 CALM      30.26R
HARTSVILLE     FAIR      48  45  87 N3        30.28R
BENNETTSVILLE  FAIR      43  43 100 CALM      30.28S
CONWAY         FAIR      52  52 100 N3        30.25S
GEORGETOWN     FAIR      55  55 100 N6        30.24R
MARION         FAIR     N/A N/A N/A N5        30.26S

....................REST OF NORTH CAROLINA......................

.........EASTERN NC.........

CITY           SKY/WX    TMP DP  RH WIND       PRES   REMARKS
CAPE HATTERAS  CLEAR     67  63  87 NE7       30.25R
JACKSONVILLE   CLEAR     53  53 100 N3        30.26S
MOREHEAD CITY  CLEAR     62  60  93 N8        30.24S
KENANSVILLE    CLEAR     48  48 100 CALM      30.28R
NEW BERN       PTCLDY    58  57  97 N5        30.27S
ELIZABETH CITY CLEAR     58  58 100 N6        30.28S

.........CENTRAL NC.........

CITY           SKY/WX    TMP DP  RH WIND       PRES   REMARKS
RALEIGH DURHAM PTCLDY    42  42 100 CALM      30.30S
ROCKY MOUNT    CLEAR     47  47 100 CALM      30.29S FOG
ROANOKE RAPIDS NOT AVBL
FAYETTEVILLE   CLEAR     49  48  97 N7        30.27S
HOFFMAN        CLEAR     40  38  95 NW6       30.29R

.........WESTERN NC.........

CITY           SKY/WX    TMP DP  RH WIND       PRES   REMARKS
CHARLOTTE      CLEAR     42  42 100 N3        30.31R
GREENSBORO     PTCLDY    42  39  89 CALM      30.30R
HICKORY        NOT AVBL
BOONE          NOT AVBL
ASHEVILLE      NOT AVBL

.....................REST OF SOUTH CAROLINA.....................

.........EASTERN SC.........

CITY           SKY/WX    TMP DP  RH WIND       PRES   REMARKS
CHARLESTON     CLEAR     56  53  90 N6        30.22S
BEAUFORT MCAS  CLEAR     58  55  90 N6        30.23R
HILTON HEAD    CLEAR     64  55  72 NE14        N/A

.........CENTRAL SC.........

CITY           SKY/WX    TMP DP  RH WIND       PRES   REMARKS
COLUMBIA       CLEAR     43  41  93 CALM      30.27S
ORANGEBURG     CLEAR     46  44  93 CALM      30.26S
SUMTER SHAW    CLEAR     48  42  80 N6        30.25R

.........WESTERN SC.........

CITY           SKY/WX    TMP DP  RH WIND       PRES   REMARKS
GREENVILLE     NOT AVBL
ROCK HILL      CLEAR     40  40 100 CALM      30.30S
ANDERSON       CLEAR     43  41  93 CALM      30.30R
CLEMSON        NOT AVBL
GREENWOOD      CLEAR     40  40 100 CALM      30.31R


...................COASTAL AND OFFSHORE REPORTS..................

................LOCAL PIERS AND NC RESERVE................


STATION/POSITION TIME  SKY/WX   TEMP    WIND        PRES    VSBY
                                AIR SEA DIR/SP/G
                 (UTC)          (F)     (DEG/KT/KT) (MB)    (MI)
JOHNY MRCER PIER NOT AVBL
NC RESRV MASNBRO 0945            58      20/  1     1024.0
OCEAN CREST PIER NOT AVBL
SPRINGMAID  PIER NOT AVBL


................COASTAL AND OFFSHORE BUOYS................


STATION/POSITION TIME  SKY/WX   TEMP    WIND        PRES    VSBY
                                AIR SEA DIR/SP/G
                 (UTC)          (F)     (DEG/KT/KT) (MB)    (MI)
DIMNDSHOAL 41025 1050            74 81   60/ 12/ 16 1023.3R
WVE H/P(F/S)=  5/ 9 SWL H/P/D(F/S/D)=  5/100/ 9

CAPE LOOKOUT     1100            64      10/ 12/ 15 1023.4R
ONSLOW BAY 41036 NOT AVBL
ONSLOW BAY 41064 1008            71      40/ 16/ 21 1022.7R
ONSLOW BAY 41159 NOT AVBL
MASNBO INL 41110 1059               74                N/A
WVE H/P(F/S)=  5/10 SWL H/P/D(F/S/D)=  2/140/11

WILM HARBR 41108 1030               74                N/A
WVE H/P(F/S)=  4/ 9

27SE WRITB 41037 1008            71 76   60/ 17/ 23 1022.6F
FRYING PAN 41013 1100            73 76   30/ 19/ 23 1022.1
SUNST NRSH 41024 1008            62 73   40/ 12/ 16 1023.1F
CAPRS NRSH 41029 1008            63 73   30/ 17/ 21 1022.1R
EDISTO     41004 1100            74 80   40/ 19/ 23 1021.2


..........OFFSHORE BUOYS BEYOND 100 NM OFFSHORE...........
.....IN A TRIANGLE---HAT TO BERMUDA TO BAHAMAS TO HAT.....


STATION/POSITION TIME  SKY/WX   TEMP    WIND        PRES    VSBY
                                AIR SEA DIR/SP/G
                 (UTC)          (F)     (DEG/KT/KT) (MB)    (MI)
150E HAT   41001 NOT AVBL
W BERMUDA  41048 1100            74 79   50/ 29/ 39 1016.3
ATLANTIC S 41049 1050            80 81  180/ 12/ 14 1019.4R
WVE H/P(F/S)=  6/10 SWL H/P/D(F/S/D)=  5/340/10

E BAHAMAS  41046 1100            82 82  150/ 14/ 17 1017.4
NE BAHAMAS 41047 1100            77 82  220/ 12/ 14 1016.1
120E CANVRL41010 NOT AVBL

END




USA.gov is the U.S. government's official web portal to all federal, state and local government web resources and services.